COSMOS 1288

Satellite information

Favourite Embed

Satellite Type and Status

PAYLOADIN ORBIT

Key statistics

Satellite COSMOS 1288 at a glance.

Uptime

16042

Days in orbit

Revolutions

≈ 12.5

Per day

Orbit

LEO

Low Earth Orbit

Inclination

74.0

Latest

Satellite identification and parameters

Extended collection of information and parameters for COSMOS 1288.

Object identification

Identified? True

Debris? False

Object name: COSMOS 1288

International designator: 1981-074B

Object number (NORAD): 12637

Object ID (CCSDS): 12637

Country: COMMONWEALTH OF INDEPENDENT STATES (CIS)

Current information (Y/N): Y

RCS size: MEDIUM

Orbital parameters

Period: 115.504 minutes

Inclination: 74.0302 deg

SMA: 7856.437 km

Apoapsis: 1491.743 km

Periapsis: 1464.86 km

RAAN: 203.1643 deg

Eccentricy: 0.0017109

Argument of periapsis: 67.0731 deg

Mean anomaly: 106.0659 deg

Mean motion: 12.46706802 rev/day

Mean motion (dot): 0.00000009 rev/day2

B* drag term: 0.00016705 1/REarth

Two-line elements (TLE)

Creation date: July 8, 2025, 2:27 a.m.

Reference frame: TEME

Reference center: EARTH

Epoch: July 7, 2025, 8:06 p.m. UTC

TLE line 0: 0 COSMOS 1288

TLE line 1: 1 12637U 81074B 25188.83798170 .00000009 00000-0 16705-3 0 9997

TLE line 2: 2 12637 74.0302 203.1643 0017109 67.0731 106.0659 12.46706802998726

Live tracking on map

Real-time ground track for satellite COSMOS 1288.

In-orbit conjunctions

A list of the most updated potential collisions computed for object COSMOS 1288.

Target Orbit TCA Probability of collision Miss distance Type
DELTA 1 DEB SSO 2025-06-06 20:25:39 0.0002198036 465.0 (m) DEBRIS

Associated space launch

Military communications satellites

COSMOS 1288 was lifted into orbit during the mission ‘Kosmos-3M | Strela-1M 217-224’, on board a Kosmos-3M space rocket.

The launch took place on Aug. 6, 1981, 11:49 a.m. from 132/2.

For more information about the launch, click the button.

Launch to space Kosmos-3M | Strela-1M 217-224
Kosmos-3M | Strela-1M 217-224

Agency: N/A

Status: Launch Successful

Launch date: Aug. 6, 1981, 11:49 a.m. UTC

Rocket: Kosmos-3M

Launch pad: 132/2

Location: Plesetsk Cosmodrome, Russian Federation

...

Latest news about this satellite

There are no fresh news available about this satellite. Check back as we update our databases every day.


Newsletter sign-up

Weekly statistics, charts and insights to help you stay on top of the space industry.